Regional Weather Roundup
Issued by NWS Lake Charles, LA

Home | Current Version | Previous Version | Text Only | Print | Product List | Glossary On
Versions: 1 2 3 4 5 6 7 8 9 10 11 12 13 14 15 16 17 18 19 20 21 22 23 24 25 26 27 28 29 30 31 32 33 34 35 36 37 38 39 40 41 42 43 44 45 46
000
ASUS44 KLCH 200910
RWRLCH
RWRLCH
REGIONAL WEATHER ROUNDUP
NATIONAL WEATHER SERVICE LAKE CHARLES LA
300 AM CST SAT DEC 20 2014

Note: "fair" indicates few or no clouds below 12,000 feet with no
significant weather and/or obstructions to visibility.


ACROSS SOUTHEAST TEXAS

CITY           SKY/WX    TMP DP  RH WIND       PRES   REMARKS
BEAUMONT       CLOUDY    50  48  93 N15       30.11S
BEAUMONT CITY  CLOUDY    49  48  97 N12       30.13S
ORANGE         CLOUDY    49  48  97 N10G16    30.13S
JASPER         CLOUDY    48  46  94 N3        30.17S
$$

ACROSS CENTRAL LOUISIANA

CITY           SKY/WX    TMP DP  RH WIND       PRES   REMARKS
LEESVILLE      CLOUDY    47  46  97 NE9       30.13F
FULLERTON      CLOUDY    49  45  86 VRB6      30.11F FOG
ALEXANDRIA INT CLOUDY    47  45  93 NE6       30.14F
ESLER FIELD    CLOUDY    47  45  93 VRB3      30.15F
DERIDDER       CLOUDY    47  46  95 N7        30.15S
OAKDALE        CLOUDY    48  46  93 N6        30.13S
OPELOUSAS      CLOUDY    47  46  96 N14       30.11S
$$

ACROSS SOUTHWEST AND SOUTH CENTRAL LOUISIANA

CITY           SKY/WX    TMP DP  RH WIND       PRES   REMARKS
SULPHUR        CLOUDY    50  49  96 N8        30.12S
LAKE CHARLES   CLOUDY    49  47  93 MISG      30.11S FOG
CHENNAULT INT  CLOUDY    48  47  97 N7        30.12S
CAMERON PHI    CLOUDY    50  48  93 NE15      30.13R
DEQUINCY       CLOUDY    47  47 100 N7        30.13R
JENNINGS       CLOUDY    48  47  97 N13       30.11R
LAFAYETTE      CLOUDY    48  47  96 N13       30.10R
NEW IBERIA     CLOUDY    50  47  89 N15       30.09R
ABBEVILLE      CLOUDY    48  47  97 N13       30.09S
PATTERSON      CLOUDY    52  48  87 N12G17    30.06S
SALT POINT       N/A     55  51  86 N9        30.03S
$$

SELECTED SITES ACROSS THE REGION

CITY           SKY/WX    TMP DP  RH WIND       PRES   REMARKS
HOUSTON BUSH   CLOUDY    51  49  92 N12       30.14S
HOUSTON HOBBY  CLOUDY    53  51  93 N12       30.12F
GALVESTON      LGT RAIN  53  52  96 N22G29    30.12R
COLLEGE STAT   CLOUDY    49  46  90 N7        30.17S
CONROE         CLOUDY    50  47  89 N5        30.16S
HUNTSVILLE     CLOUDY    49  47  93 VRB3      30.16S FOG
LUFKIN         CLOUDY    50  46  86 N5        30.17R
SHREVEPORT     CLOUDY    46  43  89 E6        30.19R
MONROE         CLOUDY    44  42  93 NE5       30.20S
NATCHEZ MS     CLOUDY    45  43  93 N7        30.16S
BATON ROUGE    CLOUDY    48  45  89 N8        30.11R
N.O. INTL ARPT CLOUDY    52  49  89 NE12      30.05F
SLIDELL        CLOUDY    50  47  89 N8        30.07R
$$

MARINE REPORTS

STATION/POSITION TIME  TEMP    WIND        PRES    VSBY  WAVE
                       AIR SEA DIR/SP/G                  HT/PER
                 (UTC) (F)     (DEG/KT/KT) (MB)    (MI)  (FT/S)
BUOY 30 S HIGH I 0900   54 64   20/ 17/ 19 1018.5R         4/ 5
SEA RIM ST PARK  0900   50      20/ 13/ 16 1019.9R
PORT ARTHUR      0900      61   20/  7/ 14 1019.7R
SABINE PASS N    0900   51 60   30/ 13/ 18 1019.3S
TEXAS POINT      NOT AVBL
CALCASIEU PASS   0900   50 60   50/ 13/ 20   N/A
LK CHARLES BEACH 0900   49 60              1019.9R
MARSH ISLAND     NOT AVBL
FRESH WATER LOCK 0900   51 60  350/ 13/ 19 1018.1R
AMERADA PASS     0900   52 50   30/  6/ 12 1016.9S
$$



USA.gov is the U.S. government's official web portal to all federal, state and local government web resources and services.